| time (UTC) | temp F | wind direction | speed MPH | gust MPH | rain 1hr in | rain 24hr in | rain mn in | humidity % | barometer mb |
| 20260505082516 | 79 | 235 | 0.0 | 1.0 | 0.02 | 0.13 | 0.02 | 100 | 1011.0 |
| 20260505081517 | 79 | 241 | 1.0 | 1.0 | 0.02 | 0.14 | 0.02 | 100 | 1011.6 |
| 20260505080517 | 78 | 277 | 0.0 | 1.0 | 0.02 | 0.20 | 0.02 | 100 | 1012.3 |
| 20260505075516 | 77 | 284 | 0.0 | 1.0 | 0.02 | 0.32 | 0.02 | 100 | 1013.4 |
| 20260505074538 | 79 | 311 | 1.0 | 1.0 | 0.00 | 0.34 | 0.00 | 100 | 1012.3 |
| 20260505073518 | 79 | 295 | 1.0 | 1.0 | 0.00 | 0.34 | 0.00 | 100 | 1012.5 |
| 20260505072516 | 80 | 307 | 0.0 | 1.0 | 0.00 | 0.34 | 0.00 | 100 | 1011.8 |
| 20260505071518 | 81 | 349 | 0.0 | 1.0 | 0.00 | 0.34 | 0.00 | 81 | 1010.7 |
| 20260505070534 | 82 | 297 | 0.0 | 1.0 | 0.00 | 0.34 | 0.00 | 68 | 1009.5 |
| 20260505065523 | 84 | 171 | 0.0 | 2.0 | 0.00 | 0.34 | 0.00 | 62 | 1008.2 |
| 20260505064538 | 85 | 311 | 0.0 | 1.0 | 0.00 | 0.34 | 0.00 | 58 | 1007.2 |
| 20260505063518 | 85 | 319 | 1.0 | 2.0 | 0.00 | 0.34 | 0.00 | 56 | 1007.6 |
| 20260505062517 | 86 | 307 | 1.0 | 3.0 | 0.00 | 0.34 | 0.00 | 56 | 1006.3 |
| 20260505061518 | 87 | 267 | 1.0 | 3.0 | 0.00 | 0.34 | 0.00 | 57 | 1005.3 |
| 20260505060518 | 88 | 258 | 1.0 | 3.0 | 0.00 | 0.34 | 0.00 | 54 | 1005.0 |
| 20260505055517 | 89 | 271 | 1.0 | 3.0 | 0.00 | 0.34 | 0.00 | 52 | 1003.8 |
| 20260505054537 | 88 | 254 | 1.0 | 3.0 | 0.00 | 0.34 | 0.00 | 54 | 1004.8 |
| 20260505053536 | 88 | 302 | 1.0 | 3.0 | 0.00 | 0.34 | 0.00 | 54 | 1004.8 |
| 20260505052517 | 90 | 259 | 1.0 | 2.0 | 0.00 | 0.34 | 0.00 | 55 | 1003.3 |
| 20260505051519 | 90 | 236 | 1.0 | 3.0 | 0.00 | 0.34 | 0.00 | 55 | 1003.1 |
| 20260505050517 | 87 | 178 | 1.0 | 2.0 | 0.00 | 0.34 | 0.00 | 63 | 1005.8 |
| 20260505041518 | 85 | 291 | 1.0 | 4.0 | 0.00 | 0.34 | 0.00 | 80 | 1008.3 |
| 20260505040516 | 84 | 287 | 2.0 | 4.0 | 0.00 | 0.34 | 0.00 | 82 | 1008.8 |
| 20260505035518 | 83 | 287 | 2.0 | 4.0 | 0.00 | 0.34 | 0.00 | 91 | 1010.3 |
| 20260505034518 | 83 | 276 | 2.0 | 5.0 | 0.00 | 0.34 | 0.00 | 92 | 1010.6 |
| 20260505033536 | 83 | 258 | 2.0 | 4.0 | 0.00 | 0.34 | 0.00 | 91 | 1010.3 |
| 20260505032517 | 82 | 245 | 1.0 | 4.0 | 0.00 | 0.34 | 0.00 | 95 | 1011.2 |
| 20260505031518 | 81 | 258 | 2.0 | 4.0 | 0.00 | 0.34 | 0.00 | 98 | 1012.0 |
| 20260505030520 | 80 | 254 | 2.0 | 6.0 | 0.00 | 0.34 | 0.00 | 97 | 1012.6 |
| 20260505025517 | 76 | 241 | 1.0 | 3.0 | 0.00 | 0.34 | 0.00 | 100 | 1016.5 |
| 20260505024537 | 75 | 278 | 1.0 | 3.0 | 0.00 | 0.34 | 0.00 | 100 | 1017.5 |
| 20260505023536 | 74 | 269 | 1.0 | 4.0 | 0.00 | 0.34 | 0.00 | 100 | 1018.1 |
| 20260505022516 | 74 | 267 | 1.0 | 2.0 | 0.00 | 0.34 | 0.00 | 100 | 1018.2 |
| 20260505021517 | 73 | 217 | 1.0 | 2.0 | 0.00 | 0.34 | 0.00 | 100 | 1019.1 |
| 20260504221017 | 68 | 3 | 1.0 | 1.0 | 0.00 | 0.34 | 0.00 | 100 | 1022.2 |
| 20260504220018 | 68 | 315 | 0.0 | 1.0 | 0.00 | 0.34 | 0.00 | 100 | 1022.5 |
| 20260504215018 | 68 | 6 | 0.0 | 1.0 | 0.00 | 0.34 | 0.00 | 100 | 1022.2 |
| 20260504214017 | 69 | 301 | 1.0 | 1.0 | 0.00 | 0.34 | 0.00 | 100 | 1022.0 |
| 20260504213018 | 69 | 305 | 0.0 | 1.0 | 0.00 | 0.34 | 0.00 | 100 | 1021.7 |
| 20260504212017 | 69 | 180 | 0.0 | 1.0 | 0.00 | 0.34 | 0.00 | 100 | 1021.3 |
| 20260504211117 | 69 | 259 | 0.0 | 1.0 | 0.00 | 0.34 | 0.00 | 100 | 1021.0 |
| 20260504210018 | 69 | 270 | 0.0 | 1.0 | 0.00 | 0.34 | 0.00 | 100 | 1021.2 |
| 20260504205016 | 69 | 279 | 0.0 | 1.0 | 0.00 | 0.34 | 0.00 | 100 | 1021.2 |
| 20260504204037 | 69 | 270 | 1.0 | 1.0 | 0.00 | 0.34 | 0.00 | 100 | 1021.2 |
| 20260504202019 | 69 | 283 | 1.0 | 1.0 | 0.00 | 0.34 | 0.00 | 100 | 1021.5 |
| 20260504201038 | 69 | 239 | 0.0 | 1.0 | 0.00 | 0.34 | 0.00 | 100 | 1021.4 |
| 20260504200018 | 69 | 261 | 0.0 | 1.0 | 0.00 | 0.34 | 0.00 | 100 | 1021.1 |
| 20260504195017 | 69 | 285 | 1.0 | 1.0 | 0.00 | 0.34 | 0.00 | 100 | 1021.1 |
| 20260504194019 | 69 | 293 | 1.0 | 1.0 | 0.00 | 0.34 | 0.00 | 100 | 1021.2 |
| 20260504193017 | 70 | 196 | 0.0 | 1.0 | 0.00 | 0.34 | 0.00 | 100 | 1020.6 |
| 20260504192017 | 70 | 231 | 1.0 | 2.0 | 0.00 | 0.34 | 0.00 | 100 | 1020.8 |
| 20260504191016 | 70 | 222 | 1.0 | 2.0 | 0.00 | 0.34 | 0.00 | 100 | 1020.8 |
| 20260504190023 | 69 | 246 | 1.0 | 2.0 | 0.00 | 0.34 | 0.00 | 100 | 1021.2 |
| 20260504185017 | 69 | 259 | 1.0 | 3.0 | 0.00 | 0.34 | 0.00 | 100 | 1021.2 |
| 20260504184016 | 70 | 242 | 1.0 | 2.0 | 0.00 | 0.34 | 0.00 | 100 | 1021.3 |
| 20260504183017 | 70 | 253 | 1.0 | 3.0 | 0.00 | 0.34 | 0.00 | 100 | 1021.5 |
| 20260504182017 | 70 | 259 | 1.0 | 2.0 | 0.00 | 0.34 | 0.34 | 100 | 1021.8 |
| 20260504181036 | 70 | 298 | 1.0 | 1.0 | 0.00 | 0.34 | 0.34 | 100 | 1021.9 |
| 20260504180017 | 70 | 313 | 0.0 | 1.0 | 0.00 | 0.34 | 0.34 | 100 | 1021.5 |
| 20260504175018 | 70 | 41 | 1.0 | 2.0 | 0.00 | 0.34 | 0.34 | 100 | 1021.8 |
| 20260504174016 | 70 | 54 | 1.0 | 3.0 | 0.00 | 0.34 | 0.34 | 100 | 1021.6 |
| 20260504173017 | 71 | 55 | 1.0 | 1.0 | 0.00 | 0.34 | 0.34 | 100 | 1021.0 |
| 20260504172016 | 71 | 76 | 2.0 | 4.0 | 0.00 | 0.34 | 0.34 | 100 | 1020.0 |
| 20260504171017 | 71 | 29 | 1.0 | 2.0 | 0.00 | 0.34 | 0.34 | 97 | 1019.7 |
| 20260504151017 | 69 | 39 | 2.0 | 3.0 | 0.00 | 0.33 | 0.33 | 100 | 1022.4 |
| 20260504141018 | 69 | 8 | 1.0 | 2.0 | 0.01 | 0.33 | 0.33 | 100 | 1021.6 |